x

Sentry Shoal (46131) Wave Buoy

1:00 - Thu 25th Aug 2016 All times are PDT. -7 hours from GMT.

  • Sig Wave height 0.7ft
  • Peak Period 2s
  • Wind
    11mph, 13mph gusts
  • Sea Temp 58°f
  • Luft Temp 64°f
  • Sea Pressure 1021.2mb
  • Sentry Shoal
  • Sentry Shoal

More Historic Weather Station data

Upgrade to MSW Pro to gain access to the past 30 days of data for over 8000 Wavebouys and Weather Stations around the globe.

Join Pro

Comparision Forecast

View Surf forecast
   
Do 08/25 1:00 0.7ft 2s 11 13 mph 1021.2mb 58f 64f
12:00 0.7ft 2s 13
mph
1021.2mb 59f 66f
Mi 08/24 11:00 0.3ft 6s 13
mph
1021.1mb 59f 67f
10:00 0.3ft 6s 9 11 mph 1021.1mb 60f 66f
9:00 0.3ft 2s 9 11 mph 1021.1mb 60f 68f
8:00 0.3ft 2s  -  2 mph 1020.7mb 64f 69f
7:00  -  2s 4
mph
1020.8mb 63f 68f
6:00  -  2s 4
mph
1021.1mb 62f 69f
5:00  -  2s 4
mph
1021.7mb 59f 69f
4:00 0.3ft 3s 4
mph
1022.4mb 60f 70f
3:00 0.3ft 3s 2 4 mph 1023mb 64f 69f
2:00 0.3ft 2s 4
mph
1023.6mb 63f 66f
1:00 0.3ft 5s 2 4 mph 1024.2mb 61f 65f
12:00 0.3ft 3s 4
mph
1024.8mb 59f 64f
11:00 0.3ft 2s 4 7 mph 1025.4mb 57f 61f
10:00 0.3ft 2s 9
mph
1025.7mb 57f 60f
9:00 0.7ft 2s 9 11 mph 1025.7mb 56f 59f
8:00 0.7ft 2s 11 13 mph 1025.6mb 56f 59f
7:00 1ft 2s 13
mph
1025.3mb 56f 59f
6:00 1ft 2s 13
mph
1025.1mb 55f 59f
5:00 0.7ft 2s 11 13 mph 1024.9mb 55f 58f
4:00 0.7ft 2s 13 16 mph 1024.3mb 56f 60f
3:00 1ft 2s 11 13 mph 1024mb 55f 59f
2:00 0.7ft 2s 13
mph
1023.9mb 55f 59f
1:00 1ft 2s 11 13 mph 1023.7mb 56f 60f
12:00 0.7ft 2s 13 16 mph 1023.5mb 57f 61f
Di 08/23 10:00 1ft 2s 16 18 mph 1022.7mb 58f 64f
9:00 1ft 2s 16 18 mph 1022.4mb 58f 64f
8:00 1ft 2s 16 20 mph 1021.9mb 58f 66f
7:00 0.3ft 2s 16 18 mph 1021.5mb 59f 66f
6:00 0.3ft 2s 9 11 mph 1021.6mb 59f 68f
5:00 0.3ft 2s 2 4 mph 1021.9mb 58f 69f
4:00 0.3ft 3s 2 4 mph 1022.2mb 62f 66f
3:00 0.3ft 4s 4 7 mph 1022.5mb 61f 65f
2:00 0.3ft 2s  -  2 mph 1022.9mb 60f 62f
1:00 0.3ft 3s 7 9 mph 1023.1mb 57f 61f
12:00 0.3ft 2s 7 9 mph 1023.4mb 56f 59f
11:00 0.7ft 2s 9 11 mph 1023.6mb 56f 58f
10:00 0.7ft 2s 9 11 mph 1023.7mb 56f 57f
9:00 0.7ft 2s 9
mph
1023.9mb 57f 57f
8:00 0.7ft 2s 9 11 mph 1023.6mb 56f 56f
7:00 0.3ft 2s 11
mph
1023.1mb 58f 56f
6:00 0.7ft 2s 11 13 mph 1022.7mb 59f 57f
5:00 0.7ft 2s 13 16 mph 1022.3mb 59f 58f
4:00 0.7ft 2s 16 18 mph 1022.1mb 59f 59f
3:00 0.3ft 2s 13 16 mph 1021.8mb 59f 58f
2:00 0.3ft 2s 9 11 mph 1021.7mb 59f 59f
1:00 0.7ft 2s 11
mph
1021.3mb 59f 60f
12:00 0.7ft 2s 11 13 mph 1021mb 59f 60f
Mo 08/22 11:00 0.3ft 2s 11 13 mph 1020.5mb 59f 60f
10:00 0.3ft 2s  -  4 mph 1020.1mb 60f 60f
9:00 0.3ft 2s 4
mph
1019.6mb 60f 60f
8:00 0.3ft 3s 4 7 mph 1018.6mb 60f 61f
7:00 0.3ft 2s 4
mph
1018.3mb 60f 65f
6:00 0.3ft 2s 4 7 mph 1018.2mb 59f 64f
5:00 0.3ft 2s 7
mph
1018.1mb 59f 63f
4:00 0.3ft 2s 2 4 mph 1018mb 58f 65f
3:00 0.3ft 2s 7 9 mph 1017.9mb 59f 65f
2:00 0.3ft 2s 4 7 mph 1018mb 60f 63f
1:00 0.3ft 2s 7 9 mph 1018mb 59f 60f
12:00 0.7ft 2s 11 13 mph 1017.7mb 59f 61f
11:00 0.7ft 2s 13 16 mph 1017.5mb 58f 60f
10:00 0.3ft 2s 11 13 mph 1017.2mb 60f 59f
9:00 0.3ft 2s 4
mph
1017.2mb 59f 59f
8:00 0.3ft 2s 4
mph
1016.7mb 59f 58f
7:00 0.3ft 3s 2 4 mph 1016.1mb 59f 59f
6:00 0.3ft 2s 2
mph
1015.7mb 59f 58f
5:00 0.7ft 2s 2
mph
1015.2mb 59f 58f
4:00 0.7ft 2s 4 7 mph 1015mb 59f 58f
3:00 1ft 3s 9 11 mph 1014.7mb 59f 58f
2:00 1ft 2s 11 13 mph 1014.3mb 58f 58f
1:00 1ft 3s 9
mph
1014mb 56f 58f
12:00 1.3ft 3s 9 11 mph 1013.8mb 54f 57f
So 08/21 11:00 2ft 3s 13 18 mph 1013.2mb 54f 57f
10:00 2.5ft 3s 20 25 mph 1012.7mb 55f 59f
9:00 2.5ft 4s 22 25 mph 1012.1mb 55f 61f
8:00 2.5ft 3s 25 31 mph 1011.5mb 55f 61f
7:00 3ft 4s 27 34 mph 1010.7mb 55f 62f
6:00 3ft 4s 20 27 mph 1010.6mb 55f 63f
5:00 3.5ft 4s 25 29 mph 1010.2mb 56f 64f
4:00 2.5ft 4s 22 27 mph 1010.3mb 58f 63f
3:00 2.5ft 4s 20 25 mph 1010.5mb 59f 64f
2:00 2.5ft 4s 20 22 mph 1010.5mb 57f 63f
1:00 2ft 3s 22 27 mph 1010.3mb 57f 62f
12:00 1.3ft 3s 18 22 mph 1009.9mb 57f 62f
11:00 1.6ft 3s 18 22 mph 1009.8mb 57f 60f
10:00 0.3ft 3s 18 20 mph 1009.1mb 58f 60f